Location: Lowman
(44.0835°N, 115.6207°W)
Time: 19:17:55
(UTC+00:00)

Envisat - Pass Details

Date: 29 November 2022
Orbit: 763 x 765 km, 98.2° (Epoch: 29 January)

Event Time Altitude Azimuth Distance (km) Brightness Sun altitude
Rises 13:30:23 0° 357° (N) 3,244 6.1 -14.9°
Reaches altitude 10° 13:33:30 10° 337° (NNW) 2,312 5.1 -14.3°
Enters shadow 13:34:49 14° 323° (NW) 2,048 4.7 -14.1°
